Racecast

Waurika Invitational

Waurika Golf Course · 3200m · Girls · Varsity · 2020-10-10 · OK

Course difficulty: -0.002

Race-day weather: 74°F · wind 14 mph · humidity 72%

View full meet →

Team scores

Place Team Points 12345 67
1 Plainview (OK) 40 2 7 9 10 12 15 54
2 Marietta (OK) 139 4 17 25 36 57 67 102
3 Madill (OK) 148 1 24 32 45 46 49 56
4 Marlow (OK) 185 5 13 33 53 81 83 86
5 Waurika (OK) 187 20 27 39 40 61 75 88
6 Blanchard (OK) 196 16 28 38 43 71 73 82
7 Anadarko (OK) 204 3 21 31 70 79 84 89
8 Bridge Creek (OK) 219 14 35 41 42 87 100 101
9 Newcastle (OK) 227 6 26 63 64 68 69 91
10 Sulphur (OK) 247 19 34 52 62 80
11 Pauls Valley (OK) 262 22 30 60 65 85 96 105
12 Velma-Alma (OK) 264 8 47 48 55 106
13 Dickson (OK) 280 11 29 37 92 111 112 113
14 Rush Springs (OK) 299 18 50 59 78 94 98 99
15 Merritt (OK) 317 23 51 74 76 93
16 Ryan (OK) 417 44 66 77 114 116 117
17 Hobart (OK) 441 58 72 97 104 110
18 Silo (OK) 503 90 95 103 107 108 109 115

As scored by the meet.

Results

Rating scale ?
Place Athlete Grade School Time Rating Points
1 Isabel Sanchez 11 Madill (OK) 1 12:17.4 PR 125.8 1
2 Madie Turner 12 Plainview (TX) 1 12:17.9 PR 125.7 2
3 Leyla Saldana 9 Anadarko (OK) 1 12:25.9 PR 124.3 3
4 Madison Lemons 12 Marietta (OH) 1 12:28.3 PR 123.9 4
5 Korie Kizarr 11 Marlow (OK) 1 12:30.7 PR 123.5 5
6 Ashlyn Vasquez 10 Newcastle (OK) 1 12:32.3 PR 123.3 6
7 Katie Wiggs 12 Plainview (TX) 2 12:33.5 PR 123.1 7
8 Haley Hutchison 12 Geronimo (OK) 1 12:36 PR 122.7
9 Savanna Wainscott 9 Velma-Alma (OK) 1 12:38.7 PR 122.2 8
10 Hadyn Hobbs 12 Plainview (TX) 3 12:39.4 PR 122.1 9
11 Alli Mcadams 11 Plainview (TX) 4 12:41.5 PR 121.8 10
12 Ashlen Clem 11 Dickson (OK) 1 12:42.7 PR 121.6 11
13 Jacey Keith 12 Plainview (TX) 5 12:44 SR 121.4 12
14 Kyah Blundell 10 Marlow (OK) 2 12:47.6 SR 120.8 13
15 Kira Berkey 11 Hydro-Eakly (OK) 1 12:49.2 SR 120.6
16 Jaylee Miller 11 Comanche (KS) 1 12:49.4 SR 120.5
17 Kaylee Campbell 10 Bridge Creek (OK) 1 13:05.4 PR 118.1 14
18 Olivia Heller 12 Plainview (TX) 6 13:07.1 PR 117.8 15
19 Eden Rutledge 12 Blanchard (OK) 1 13:08.1 SR 117.7 16
20 Vanessa Rodriguez 10 Marietta (OH) 2 13:13 PR 116.9 17
21 Jayden Abbott 12 Rush Springs (OK) 1 13:15.8 116.5 18
22 Ana Hall 12 Sulphur (OK) 1 13:18.7 PR 116.1 19
23 Tallin Mora 11 Waurika (OK) 1 13:19.8 PR 115.9 20
24 Lauren Johanntoberns 10 Anadarko (OK) 2 13:20.5 PR 115.8 21
25 Rhylee Tucker 12 Pauls Valley (OK) 1 13:20.9 SR 115.8 22
26 Lexie Fraizer 11 Merritt (OK) 1 13:21.9 PR 115.6 23
27 Valeria Calderon 12 Madill (OK) 2 13:22.9 115.5 24
28 Sophie Love 12 Marietta (OH) 3 13:25.1 SR 115.2 25
29 Georgous Wilson 12 Newcastle (OK) 2 13:27.2 PR 114.9 26
30 Lexie Streeter 12 Waurika (OK) 2 13:28 SR 114.8 27
31 Isabel Bush 10 Carnegie (OK) 1 13:29.3 PR 114.6
32 Lauren Coffman 11 Blanchard (OK) 2 13:30.9 PR 114.3 28
33 Lauren Hendry 12 Dickson (OK) 2 13:31.5 SR 114.3 29
34 Kaylee Clark 11 Pauls Valley (OK) 2 13:32.2 SR 114.2 30
35 Joyanne Davis 12 Anadarko (OK) 3 13:33.8 PR 113.9 31
36 Carol Moreno 11 Madill (OK) 3 13:34.7 PR 113.8 32
37 Grace Banks 12 Marlow (OK) 3 13:36.2 PR 113.6 33
38 Marli Williams 10 Lone Grove (OK) 1 13:41.6 PR 112.9
39 Carlee Cole 11 Sulphur (OK) 2 13:46.5 SR 112.2 34
40 Katelyn Newhouse 10 Bridge Creek (OK) 2 13:47.2 PR 112.1 35
41 Jayleigh Blevins 12 Marietta (OH) 4 13:47.7 PR 112.0 36
42 Katlen Clem 11 Dickson (OK) 3 13:48.3 PR 111.9 37
43 Kaesey Lasater 12 Blanchard (OK) 3 13:48.8 111.9 38
44 Aubree Showalter 9 Waurika (OK) 3 13:52.5 PR 111.4 39
45 Asia Smith 12 Waurika (OK) 4 13:53.3 111.3 40
46 Mattie Adams 10 Bridge Creek (OK) 3 13:55.7 PR 111.0 41
47 Hannah Badon 12 Bridge Creek (OK) 4 13:57.2 SR 110.8 42
48 Emma Price 12 Blanchard (OK) 4 13:58.9 PR 110.5 43
49 Alicen Williams 11 Ryan (OK) 1 14:01.8 110.2 44
50 Maritsa Mendez 12 Madill (OK) 4 14:02.2 PR 110.1 45
51 Mercedes Stumblingbear 10 Madill (OK) 5 14:04.1 SR 109.8 46
52 Abby Dunn 11 Velma-Alma (OK) 2 14:05.3 PR 109.7 47
53 Jadyn Lowry 9 Velma-Alma (OK) 3 14:07 PR 109.5 48
54 Joslyn Stumblingbear 11 Madill (OK) 6 14:07.5 SR 109.4 49
55 emily Pursley 10 Rush Springs (OK) 2 14:08.8 PR 109.2 50
56 Breegan Barnett 10 Merritt (OK) 2 14:10.5 109.0 51
57 Kye Heldermon 12 Alex (OK) 1 14:11.3 108.9
58 Adrianna Dennis 10 Sulphur (OK) 3 14:11.7 SR 108.9 52
59 Skylar Ramsey 9 Marlow (OK) 4 14:12.2 PR 108.8 53
60 Haylie Orr 9 Plainview (TX) 7 14:12.4 PR 108.8 54
61 Cayman Bucceri 9 Velma-Alma (OK) 4 14:13.6 PR 108.6 55
62 Korlee Cunningham-Martin 9 Madill (OK) 7 14:14.9 PR 108.5 56
63 Kora Humble 9 Marietta (OH) 5 14:18.3 PR 108.0 57
64 Cassidy Haworth 11 Hobart (IN) 1 14:18.7 SR 108.0 58
65 Hayven Fleitman 10 Lone Grove (OK) 2 14:19.2 PR 107.9
66 Savannah Sauer 11 Plainview (TX) 8 14:20.3 PR 107.8
67 Jerricka Funk 11 Rush Springs (OK) 3 14:21.3 PR 107.7 59
68 Harlee Jones 11 Pauls Valley (OK) 3 14:24.6 SR 107.2 60
69 Ally Rice 9 Lindsay (CA) 1 14:25.5 107.1
70 Emma Gaston 10 Lone Grove (OK) 3 14:26.1 PR 107.1
71 Libi (Liberti) Simmons 10 Waurika (OK) 5 14:26.5 SR 107.0 61
72 Daityn Webb 10 Davis (CA) 1 14:28.1 PR 106.8
73 Hannah Priest 10 Sulphur (OK) 4 14:29 SR 106.7 62
74 Bentlee Lindsey 9 Newcastle (OK) 3 14:29.7 PR 106.6 63
75 Lala Flores 12 Madill (OK) 8 14:30.2 SR 106.6
76 Marisa Moring 10 Newcastle (OK) 4 14:31.3 SR 106.4 64
77 Kimberly Diaz 10 Pauls Valley (OK) 4 14:32.2 PR 106.3 65
78 Jasmine Villarreal 9 Ryan (OK) 2 14:33.1 PR 106.2 66
79 Ryleigh Woody 12 Comanche (KS) 2 14:34.6 SR 106.0
80 Abby Alvarez 12 Marietta (OH) 6 14:37.2 SR 105.7 67
81 Chloey Boldin 9 Newcastle (OK) 5 14:37.9 PR 105.6 68
82 Cadence Howard 10 Newcastle (OK) 6 14:38.8 PR 105.5 69
83 Calli Connally 10 Anadarko (OK) 4 14:39.8 PR 105.4 70
84 Nathali Ibarra 11 Madill (OK) 9 14:40.5 PR 105.3
85 Abby Price 10 Blanchard (OK) 5 14:42 105.1 71
86 Melissa Maggard 11 Hobart (IN) 2 14:42.9 SR 105.0 72
87 Annet Nunez 11 Blanchard (OK) 6 14:43.5 PR 104.9 73
88 Joshlyn Tomlin Sanders 12 Merritt (OK) 3 14:44.3 104.9 74
89 Jaci Gholson 9 Waurika (OK) 6 14:45 PR 104.8 75
90 Dailee Taylor 11 Merritt (OK) 4 14:45.5 104.7 76
91 Esperanza Hernandez 9 Madill (OK) 10 14:47.3 PR 104.5
92 Lilybet Harmon 12 Ryan (OK) 3 14:48.6 104.3 77
93 Aubrey Hall 10 Rush Springs (OK) 4 14:49.6 SR 104.2 78
94 Fernanda Hernandez 12 Madill (OK) 11 14:50.8 PR 104.1
95 Ariana Espinoza 9 Madill (OK) 12 14:51.5 PR 104.0
96 Eshaya Lewis 8 Plainview (TX) 9 14:53.2 PR 113.8
97 Ava Pickens 9 Plainview (TX) 10 14:53.9 103.7
98 Ayanna Dobson 9 Anadarko (OK) 5 14:55 103.6 79
99 Camila Hernandez 10 Madill (OK) 13 14:56.5 SR 103.4
100 Jaylee Jennings 11 Davis (CA) 2 14:58.2 PR 103.2
101 Sunshine Hummingbird 9 Carnegie (OK) 2 14:59.2 PR 103.1
102 Emory Glavan 9 Plainview (TX) 11 14:59.8 PR 103.1
103 Cassi Matlack 10 Sulphur (OK) 5 15:00.1 SR 103.0 80
104 Lauren Ivory 9 Marlow (OK) 5 15:00.8 PR 102.9 81
105 Sparrow Bailey 9 Blanchard (OK) 7 15:02.1 PR 102.8 82
106 Leeanne Riddle 12 Marlow (OK) 6 15:03.5 PR 102.6 83
107 Alyssa Mcdowell 11 Anadarko (OK) 6 15:04.7 102.5 84
108 Kadie Miranda 10 Pauls Valley (OK) 5 15:09.8 PR 101.9 85
109 Myleah Bearce 9 Marlow (OK) 7 15:10.4 PR 101.8 86
110 Cennedi Griffin 12 Healdton (OK) 1 15:11 SR 101.8
111 Rylee Ninman 10 Bridge Creek (OK) 5 15:12.9 PR 101.6 87
112 Jaslyn Grimaldo 11 Madill (OK) 14 15:17.9 PR 101.0
113 Sydney Bowers 11 Colbert (OK) 1 15:18.4 PR 101.0
114 Faith Roberson 11 Waurika (OK) 7 15:19.8 SR 100.8 88
115 Yailin Serrano 9 Madill (OK) 15 15:20.4 PR 100.7
116 Kennedy Kiesau 12 Carnegie (OK) 3 15:21.6 PR 100.6
117 Maci Whitney 10 Anadarko (OK) 7 15:23 PR 100.5 89
118 Sarah Dark 12 Silo (OK) 1 15:24.9 100.2 90
119 Gracie Hamon 10 Newcastle (OK) 7 15:26.1 PR 91
120 Lexi Mcgehee 9 Dickson (OK) 4 15:27 PR 100.0 92
121 Ashlee Sosa 10 Merritt (OK) 5 15:27.7 99.9 93
122 Karsyn Worden 9 Rush Springs (OK) 5 15:32.2 PR 99.5 94
123 Bristin Smith 9 Marlow (OK) 8 15:32.8 PR 99.4
124 Kyla Strickland 9 Anadarko (OK) 8 15:33.7 PR 99.3
125 Navy Wesberry 12 Silo (OK) 2 15:36.2 PR 99.0 95
126 Jacie Albright 12 Lindsay (CA) 2 15:36.6 PR 99.0
127 Julie Balcerak 12 Pauls Valley (OK) 6 15:37.3 PR 98.9 96
128 Chrissa Gomez 9 Geronimo (OK) 2 15:37.6 PR 98.9
129 Melia Hernandez 9 Hobart (IN) 3 15:37.9 PR 98.9 97
130 Sierra Nichols 12 Rush Springs (OK) 6 15:39.5 PR 98.7 98
131 Emma Allen 10 Newcastle (OK) 8 15:40.4 PR 98.6
132 Kinley Bratcher 11 Rush Springs (OK) 7 15:44.4 PR 98.2 99
133 Morgan Whitaker 10 Bridge Creek (OK) 6 15:49.9 PR 97.6 100
134 Paisley Lewis 10 Blanchard (OK) 8 15:53.8 97.2
135 Skylar Garrett 9 Waurika (OK) 8 15:54.8 PR 97.1
136 Makenzi Maple 12 Newcastle (OK) 9 15:55.5 97.0
137 Payton Goodman 9 Bridge Creek (OK) 7 15:57.2 PR 96.9 101
138 Yadira Sanchez 9 Marietta (OH) 7 16:01.5 PR 96.4 102
139 Kendall Meason 10 Walters (OK) 1 16:06.9 PR 95.9
140 Hailey Cicio 9 Silo (OK) 3 16:09.5 PR 95.6 103
141 Madi Crisp 10 Hydro-Eakly (OK) 2 16:17.3 PR 94.9
142 Sage Heldermon 9 Alex (OK) 2 16:20.1 PR 94.6
143 Madison Hawpe 9 Hydro-Eakly (OK) 3 16:20.5 PR 94.6
144 Chloe Ince 9 Lindsay (CA) 3 16:20.9 PR 94.5
145 Polly Tacker 10 Hobart (IN) 4 16:21.1 PR 94.5 104
146 Reanna Holmes 11 Newcastle (OK) 10 16:22.1 94.4
147 Emma Long 12 Pauls Valley (OK) 7 16:22.9 PR 94.3 105
148 Kayla McDaniel 9 Velma-Alma (OK) 5 16:24.6 PR 94.2 106
149 Lexy Sweet 9 Bridge Creek (OK) 8 16:26.5 PR 94.0
150 Brooklyn Barnes 12 Walters (OK) 2 16:28.9 PR 93.8
151 Taylor Lamberson 12 Bridge Creek (OK) 9 16:31.7 93.5
152 Wylie Stanley 9 Silo (OK) 4 16:32.5 93.4 107
153 Kinsley Snyder 10 Fletcher (FL) 1 16:35.8 PR 93.1
154 Finley Fulton 10 Newcastle (OK) 11 16:41.6 SR 92.6
155 Jelynn Spradlin 10 Lone Grove (OK) 4 16:45.4 PR 92.2
156 Amber Spence 10 Walters (OK) 3 16:56.6 91.2
157 Balynn Snapp 10 Silo (OK) 5 16:58.1 PR 91.1 108
158 Sarai Alvarez 10 Comanche (KS) 3 17:05.4 SR 90.4
159 Kimberly Clark 9 Silo (OK) 6 17:07.9 90.2 109
160 Tarah Wiese 10 Madill (OK) 16 17:09.5 PR 90.1
161 Katie Walls 10 Hobart (IN) 5 17:19.6 89.2 110
162 Kadence Hudson 9 Dickson (OK) 5 17:32.6 PR 88.1 111
163 Audrey Heath 9 Rush Springs (OK) 8 17:33.9 PR 88.0
164 Emmaline Jennings 9 Dickson (OK) 6 17:49.5 86.7 112
165 Shelby Barker 9 Dickson (OK) 7 17:55.8 PR 86.2 113
166 Libby Carter 10 Ryan (OK) 4 18:08.2 PR 85.2 114
167 Kaylea Hawkins 10 Bridge Creek (OK) 10 18:10.2 PR 85.1
168 Summer Bunch 11 Geronimo (OK) 3 18:16.6 84.6
169 Savana Ritter 12 Waurika (OK) 9 18:19.9 PR 84.3
170 Mariana Mendez 12 Madill (OK) 17 18:25.2 SR 83.9
171 Kaci Reynolds 12 Waurika (OK) 10 18:31.3 SR 83.4
172 Hope Cummings 12 Waurika (OK) 11 19:04.9 SR 81.0
173 Shayla Wilson 9 Silo (OK) 7 19:06 80.9 115
174 Janet Hinojosa 9 Hydro-Eakly (OK) 4 19:32.3 PR 79.1
175 Cassity Stewart 10 Davis (CA) 3 19:33.4 PR 79.0
176 Lindsey Reak 10 Ryan (OK) 5 20:06.8 PR 76.8 116
177 Katelynn Dabbs 11 Ryan (OK) 6 20:24.1 75.8 117
178 Addison Pinkerton 9 Plainview (TX) 12 20:27.5 PR 75.5
179 Nayeli Lopez 12 Carnegie (OK) 4 20:29.4 PR 75.4
180 Naveah Whitfield 10 Healdton (OK) 2 20:29.8 PR 75.4
181 Natalie Gregg 10 Davis (CA) 4 20:40 PR 74.8
182 Lucille Ranney 10 Silo (OK) 8 20:45.1 PR 74.5
183 Addison Blanco 9 Dickson (OK) 8 20:47.6 PR
Something wrong on this page? Report it →